星链-1289 (STARLINK-1289 )

导读 | 豆包AI

STARLINK-1289是美国太空探索技术公司Starlink星链卫星互联网项目的卫星,于2020年3月18日发射升空,属于星链组网的早期批次卫星,主要作用是为全球范围内提供低延迟、高速率的宽带互联网服务,运行在近地轨道,是星链星座构建中推进全球覆盖的重要组成单元。

基本信息
目录编号:
45391
目录名称:
STARLINK-1289
国际标识:
2020-019AH
轨道中心:
EARTH
卫星名称:
星链-1289
卫星全名:
星链-1289 (STARLINK-1289 )
卫星状态:
已陨落 最后检测时间 2024-09-26
发射日期:
2020-03-18 UTC
国别 :
美国 (US)
星等 :
--
轨道信息
数据来源 国际轨道数据
星历时间: 2024-09-27T01:36:21+0800
轨道信息已过期533天
半长轴: 6536.055km
偏心率: 0.0009816
轨道倾角: 53.044°
近地点辐角 286.185°
升交点赤经 331.192°
平近点角 163.458°
近地点: 151.504km
远地点: 164.336km
周期: 87.646分钟
每日圈数: 16.429685
详细信息
固有亮度:
5
最大亮度:
2.5
卫星平台:
Starlink V1.0
覆盖范围:
全球
运营商:
太空探索技术公司
运营商所在国:
美国
制造商(研发单位):
太空探索技术公司
制造商所在国:
美国
使用方式:
暂无
卫星简介
星链(Starlink)计划是由太空探索技术公司(SpaceX)提出的一个巨型低轨卫星互联网星座项目,计划在2019年至2024年间在太空搭建由约1.2万颗卫星组成的“星链”网络,其中1584颗将部署在地球上空550千米处的近地轨道,并从2020年开始工作。该卫星仍在工作。